Location: Domont
(49.0278°N, 2.3264°E)
Time: 01:44:27
(UTC+00:00)

Orbus 7S? - Pass Details

Date: 01 June 2022
Orbit: 340 x 6374 km, 56.9° (Epoch: 04 July)

Event Time Altitude Azimuth Distance (km) Brightness Sun altitude
Exits shadow 21:31:32 14° 158° (SSE) 3,808 6.9 -12.5°
Maximum altitude 21:40:33 36° 101° (E) 4,003 7.3 -13.3°
Drops below altitude 10° 22:02:38 10° 48° (NE) 8,660 9.6 -15.0°
Sets 22:11:52 0° 43° (NE) 10,436 10.1 -15.6°
